Date,TemperatureHighF,TemperatureAvgF,TemperatureLowF,DewpointHighF,DewpointAvgF,DewpointLowF,HumidityHigh,HumidityAvg,HumidityLow,PressureMaxIn,PressureMinIn,WindSpeedMaxMPH,WindSpeedAvgMPH,GustSpeedMaxMPH,PrecipitationSumIn
2013-3-13,39.0,33.1,25.0,31.0,23.6,16.0,89,68,53,29.90,29.80,12,5,24,0.04
2013-3-14,32.0,25.3,19.0,18.0,12.4,8.0,83,59,36,30.01,29.89,15,8,30,0.00
2013-3-15,38.0,31.1,24.0,31.0,23.6,14.0,89,74,57,30.01,29.68,13,4,24,0.00
2013-3-16,31.0,25.4,18.0,21.0,18.0,14.0,88,73,64,29.95,29.81,8,3,13,0.00
2013-3-17,30.0,23.9,17.0,22.0,16.9,11.0,91,75,54,30.31,29.95,9,3,15,0.01
2013-3-18,34.0,24.6,15.0,27.0,17.8,12.0,91,77,46,30.32,29.77,18,8,30,0.01
2013-3-19,38.0,32.4,26.0,35.0,27.0,19.0,94,81,58,29.80,29.66,14,5,27,0.14
2013-3-20,35.0,28.1,24.0,22.0,19.5,15.0,84,71,44,29.80,29.75,9,5,24,0.01
2013-3-21,31.0,25.6,20.0,25.0,17.9,13.0,90,73,49,29.80,29.68,7,3,16,0.00
2013-3-22,31.0,28.4,25.0,26.0,23.8,21.0,92,83,73,29.88,29.69,9,5,21,0.02
2013-3-23,37.0,32.5,29.0,26.0,24.3,21.0,84,72,57,29.98,29.86,10,5,19,0.01
2013-3-24,38.0,32.1,26.0,28.0,24.2,23.0,88,73,56,29.97,29.72,9,3,19,0.00
2013-3-25,41.0,34.4,31.0,30.0,26.4,24.0,83,73,58,29.72,29.57,11,4,15,0.00
2013-3-26,45.0,36.4,30.0,33.0,28.6,25.0,88,74,54,29.90,29.67,10,2,16,0.00
2013-3-27,46.0,37.0,32.0,36.0,30.3,26.0,94,77,55,30.02,29.87,9,4,21,0.08
2013-3-28,45.0,37.9,33.0,35.0,31.9,28.0,93,80,56,30.16,30.00,6,3,15,0.05
2013-3-29,50.0,41.2,36.0,36.0,31.8,27.0,84,70,48,30.17,30.09,11,3,18,0.00
2013-3-30,52.0,40.1,30.0,31.0,27.4,24.0,81,62,33,30.17,30.05,7,2,21,0.00
2013-3-31,55.0,42.1,32.0,42.0,31.8,-99.9,93,71,42,30.05,29.61,14,5,24,0.15
2013-4-1,44.0,35.7,27.0,42.0,28.1,16.0,96,75,44,29.91,29.54,10,5,24,0.14
2013-4-2,33.0,28.0,23.0,26.0,20.3,17.0,86,73,57,30.06,29.90,12,5,23,0.03
2013-4-3,37.0,30.7,26.0,22.0,17.2,13.0,77,58,39,30.33,30.06,11,6,21,0.00
2013-4-4,58.0,38.0,24.0,27.0,21.1,17.0,79,54,23,30.32,29.90,9,2,16,0.00
2013-4-5,45.0,36.2,28.0,30.0,25.1,19.0,86,65,52,30.11,29.85,11,4,22,0.00
2013-4-6,45.0,35.1,22.0,23.0,19.5,14.0,86,56,30,30.31,30.05,10,3,20,0.00
2013-4-7,72.0,53.5,42.0,47.0,32.4,21.0,70,46,34,30.06,29.70,17,8,34,0.00
2013-4-8,58.0,47.8,39.0,45.0,37.6,33.0,85,68,51,30.11,29.76,8,3,13,0.01
2013-4-9,67.0,52.7,44.0,52.0,44.5,41.0,95,75,52,30.09,29.74,10,4,25,0.71
2013-4-10,47.0,43.3,39.0,46.0,42.1,37.0,97,95,93,30.03,29.83,10,4,15,1.64
2013-4-11,40.0,35.2,32.0,38.0,31.8,27.0,95,88,70,30.13,29.95,11,6,16,0.30
2013-4-12,47.0,38.9,34.0,43.0,36.3,32.0,96,90,79,29.96,29.56,16,8,27,0.41
2013-4-13,46.0,42.2,40.0,38.0,34.8,32.0,83,75,61,29.91,29.76,7,3,17,0.01
2013-4-14,46.0,39.6,32.0,33.0,30.1,26.0,88,69,52,30.18,29.91,8,3,15,0.00
2013-4-15,71.0,51.7,32.0,51.0,39.2,28.0,89,64,45,30.17,30.01,14,8,26,0.00
2013-4-16,66.0,57.2,45.0,59.0,49.8,34.0,95,77,65,30.22,29.95,15,7,24,0.11
2013-4-17,54.0,45.0,35.0,38.0,34.2,30.0,89,67,44,30.33,30.22,8,2,14,0.08
2013-4-18,73.0,58.3,39.0,58.0,48.1,34.0,83,70,51,30.24,29.75,24,11,45,0.06
2013-4-19,74.0,59.8,43.0,61.0,51.2,32.0,87,73,62,29.77,29.38,18,10,35,0.06
2013-4-20,43.0,39.4,32.0,32.0,26.8,21.0,74,60,47,30.38,29.74,13,6,28,0.06
2013-4-21,43.0,34.6,27.0,28.0,22.9,19.0,84,63,42,30.66,30.38,7,2,13,0.00
2013-4-22,58.0,43.0,26.0,33.0,27.0,21.0,88,57,31,30.61,30.36,13,5,23,0.00
2013-4-23,61.0,49.3,38.0,39.0,33.3,27.0,67,54,41,30.36,29.98,15,8,23,0.00
2013-4-24,68.0,53.9,40.0,54.0,43.9,34.0,88,70,55,29.98,29.61,13,8,27,0.07
2013-4-25,57.0,45.0,35.0,39.0,32.5,28.0,86,64,36,30.29,29.96,9,3,17,0.05
2013-4-26,53.0,43.9,34.0,39.0,34.0,30.0,95,71,41,30.45,30.29,8,2,18,0.03
2013-4-27,69.0,49.6,31.0,44.0,36.6,29.0,94,65,33,30.43,30.22,6,2,10,0.00
2013-4-28,73.0,58.0,42.0,48.0,40.1,-99.9,87,57,27,30.23,30.03,14,6,25,0.12
2013-4-29,61.0,55.7,51.0,53.0,49.0,44.0,90,78,69,30.07,30.00,16,8,24,0.18
2013-4-30,70.0,61.3,55.0,56.0,52.7,51.0,90,74,55,30.23,30.06,13,7,20,0.04
2013-5-1,76.0,63.8,55.0,52.0,43.3,36.0,82,52,24,30.35,30.22,15,5,20,0.01
2013-5-2,77.0,62.7,49.0,49.0,42.3,36.0,71,49,29,30.41,30.26,11,4,16,0.00
2013-5-3,75.0,62.5,48.0,50.0,45.9,42.0,86,57,35,30.30,30.21,11,4,16,0.00
2013-5-4,74.0,60.7,45.0,49.0,43.3,39.0,80,54,34,30.28,30.14,10,4,17,0.00
2013-5-5,77.0,60.1,42.0,50.0,45.2,40.0,94,62,31,30.20,30.06,10,2,17,0.00
2013-5-6,76.0,60.5,45.0,47.0,41.5,34.0,88,53,25,30.16,30.00,9,4,15,0.00
2013-5-7,79.0,63.7,49.0,57.0,51.7,46.0,92,68,36,30.11,29.99,6,2,11,0.00
2013-5-8,68.0,60.6,51.0,62.0,56.4,49.0,97,86,71,30.05,29.90,8,2,18,0.09
2013-5-9,71.0,60.5,52.0,61.0,56.2,51.0,97,87,66,29.94,29.86,6,2,13,0.11
2013-5-10,73.0,59.5,49.0,62.0,53.7,-99.9,98,86,60,29.94,29.72,12,3,24,0.30
2013-5-11,61.0,56.7,48.0,59.0,51.8,44.0,97,84,64,29.75,29.64,7,3,15,0.51
2013-5-12,52.0,45.9,38.0,45.0,34.8,-99.9,94,69,41,29.88,29.67,12,5,25,0.03
2013-5-13,50.0,42.3,36.0,33.0,31.1,28.0,79,65,47,30.09,29.88,8,4,22,0.03
2013-5-14,58.0,45.2,32.0,37.0,33.0,30.0,94,66,35,30.14,29.97,6,1,11,0.00
2013-5-15,82.0,59.0,40.0,61.0,45.9,32.0,86,64,42,29.97,29.50,15,6,31,0.10
2013-5-16,76.0,58.0,50.0,48.0,24.2,-99.9,83,53,27,29.98,29.70,11,3,24,0.07
2013-5-17,65.0,51.8,38.0,47.0,35.5,-99.9,97,69,37,30.20,29.98,4,1,9,0.00
2013-5-18,71.0,55.8,38.0,52.0,45.9,37.0,97,72,45,30.26,30.14,7,2,12,0.00
2013-5-19,76.0,65.0,57.0,63.0,56.9,51.0,85,76,60,30.15,30.00,15,7,22,0.00
2013-5-20,85.0,72.1,57.0,70.0,62.5,56.0,96,73,52,30.03,29.84,9,3,13,0.00
2013-5-21,83.0,71.3,61.0,73.0,65.6,58.0,96,83,65,29.90,29.73,8,2,15,0.91
2013-5-22,89.0,72.8,61.0,71.0,65.0,58.0,99,80,47,29.79,29.64,9,2,17,0.74
2013-5-23,76.0,68.2,48.0,65.0,61.0,46.0,94,79,61,29.83,29.70,7,3,13,0.49
2013-5-24,50.0,43.0,39.0,46.0,40.0,37.0,96,89,69,30.14,29.83,8,4,18,0.50
2013-5-25,57.0,48.8,40.0,40.0,37.8,36.0,85,66,45,30.17,30.09,10,4,20,0.02
2013-5-26,62.0,52.5,43.0,41.0,37.7,34.0,83,59,37,30.17,30.07,9,3,19,0.00
2013-5-27,70.0,56.6,45.0,45.0,39.3,36.0,76,55,32,30.25,30.12,5,2,10,0.00
2013-5-28,62.0,55.3,49.0,57.0,50.4,41.0,96,84,64,30.15,29.94,11,5,19,0.84
2013-5-29,82.0,70.4,58.0,70.0,63.2,57.0,98,80,55,30.00,29.90,8,3,15,1.65
2013-5-30,89.0,74.8,60.0,70.0,64.7,59.0,98,74,45,30.10,30.00,5,1,12,0.15
2013-5-31,91.0,77.4,63.0,70.0,65.9,62.0,97,71,42,30.07,29.91,6,1,11,0.00
2013-6-1,90.0,76.6,64.0,70.0,66.9,62.0,95,74,50,29.95,29.76,7,2,18,0.00
2013-6-2,80.0,71.3,59.0,68.0,62.7,-99.9,94,79,53,29.83,29.68,8,3,21,0.22
2013-6-3,63.0,56.4,50.0,54.0,47.3,42.0,88,72,49,29.99,29.84,6,2,13,0.05
2013-6-4,66.0,56.1,46.0,46.0,42.7,33.0,92,64,31,30.14,29.99,8,2,15,0.00
2013-6-5,69.0,57.4,48.0,54.0,46.2,40.0,86,67,46,30.20,30.07,6,2,12,0.00
2013-6-6,58.0,55.4,51.0,56.0,52.5,46.0,97,90,77,30.08,29.84,9,3,13,2.05
2013-6-7,64.0,59.8,56.0,62.0,58.7,55.0,98,96,92,29.84,29.77,5,2,7,0.51
2013-6-8,64.0,59.2,56.0,61.0,57.5,56.0,99,94,82,30.02,29.77,3,1,8,0.10
2013-6-9,77.0,68.4,58.0,61.0,57.7,54.0,91,70,53,30.18,30.11,4,1,9,0.02
2013-6-10,64.0,64.0,64.0,63.0,63.0,63.0,96,96,96,29.75,29.72,6,4,9,0.30
2013-6-11,67.0,64.0,58.0,65.0,61.4,55.0,99,92,79,29.80,29.62,7,3,19,0.63
2013-6-12,75.0,63.6,53.0,60.0,55.5,52.0,96,77,51,29.92,29.78,4,1,8,0.01
2013-6-13,64.0,60.1,56.0,60.0,57.7,55.0,96,92,82,29.78,29.50,10,4,19,1.98
2013-6-14,73.0,62.9,53.0,61.0,56.9,52.0,98,82,58,29.93,29.75,7,2,14,0.01
2013-6-15,74.0,64.9,54.0,59.0,53.1,46.0,96,69,37,30.03,29.93,6,2,14,0.01
2013-6-16,75.0,66.3,59.0,67.0,60.5,54.0,94,82,72,29.93,29.68,6,2,15,0.19
2013-6-17,79.0,68.3,60.0,67.0,62.4,59.0,97,83,51,29.91,29.80,7,2,17,0.14
2013-6-18,67.0,61.1,53.0,59.0,53.6,48.0,98,78,53,30.01,29.88,7,2,14,0.03
2013-6-19,66.0,57.1,46.0,51.0,46.9,41.0,97,72,42,30.18,30.00,6,2,12,0.00
2013-6-20,76.0,56.8,42.0,57.0,48.5,41.0,98,77,47,30.24,30.18,6,1,13,0.00
2013-6-22,87.0,82.4,73.0,75.0,69.6,65.0,93,67,49,30.12,29.99,6,2,12,0.00
2013-6-23,88.0,75.9,67.0,77.0,70.5,66.0,96,84,63,30.06,29.99,8,2,15,0.58
2013-6-24,89.0,77.8,66.0,74.0,68.3,64.0,97,75,51,30.02,29.92,6,2,16,0.55
2013-6-25,85.0,75.5,66.0,73.0,67.4,64.0,94,77,59,29.94,29.77,8,2,16,0.00
2013-6-26,85.0,75.1,68.0,73.0,68.1,64.0,95,79,59,29.81,29.76,5,2,11,0.01
2013-6-27,80.0,71.3,63.0,73.0,67.6,62.0,98,89,69,29.80,29.60,6,1,10,0.07
2013-6-28,67.0,64.8,61.0,65.0,63.6,60.0,98,96,92,29.60,29.49,4,1,9,0.65
2013-6-29,76.0,70.0,61.0,68.0,64.4,60.0,98,83,64,29.68,29.50,5,1,10,0.09
2013-6-30,78.0,70.6,62.0,69.0,64.9,61.0,98,83,68,29.91,29.67,5,1,10,0.01
2013-7-1,68.0,65.6,63.0,66.0,63.9,62.0,97,94,87,30.01,29.90,3,1,10,0.37
2013-7-2,81.0,69.6,61.0,75.0,66.7,60.0,98,91,80,30.09,30.00,5,2,10,0.08
2013-7-3,86.0,75.3,65.0,77.0,69.9,64.0,98,84,69,30.14,30.07,11,2,21,0.09
2013-7-4,88.0,76.7,69.0,75.0,71.3,68.0,97,85,60,30.16,30.09,4,1,11,0.02
2013-7-5,87.0,75.6,68.0,76.0,71.4,67.0,99,88,66,30.13,30.04,7,1,16,0.14
2013-7-6,88.0,80.1,72.0,74.0,70.0,65.0,96,73,52,30.14,30.01,3,1,8,0.06
2013-7-7,85.0,77.7,70.0,75.0,70.9,66.0,97,81,61,30.03,29.91,6,2,13,0.12
2013-7-8,82.0,72.4,69.0,74.0,67.1,-99.9,96,86,71,30.04,29.96,6,1,11,0.13
2013-7-9,84.0,75.6,67.0,75.0,71.6,66.0,97,88,70,30.04,29.91,9,1,16,0.14
2013-7-10,88.0,77.3,70.0,76.0,68.2,-99.9,97,78,62,29.91,29.71,9,3,18,0.16
2013-7-11,76.0,70.0,61.0,66.0,62.1,58.0,96,76,61,30.01,29.80,6,2,12,0.09
2013-7-12,76.0,66.3,59.0,66.0,61.5,58.0,98,86,64,30.16,30.01,6,1,11,0.00
2013-7-13,78.0,70.3,60.0,72.0,66.4,59.0,98,88,76,30.24,30.14,7,2,10,0.00
2013-7-14,91.0,77.0,64.0,77.0,70.2,63.0,99,82,56,30.30,30.22,4,1,7,0.00
2013-7-15,88.0,78.7,70.0,76.0,71.9,66.0,97,81,54,30.29,30.21,6,1,11,0.00
2013-7-16,90.0,78.5,66.0,74.0,69.5,64.0,96,76,54,30.27,30.19,7,1,10,0.00
2013-7-17,93.0,79.0,67.0,82.0,72.6,66.0,98,83,57,30.22,30.06,5,1,12,0.57
2013-7-18,90.0,80.3,73.0,79.0,75.1,70.0,94,85,69,30.08,29.94,7,2,14,0.34
2013-7-19,93.0,85.9,71.0,77.0,73.7,67.0,97,68,55,29.94,29.71,15,4,28,0.10
2013-7-20,78.0,71.4,67.0,70.0,64.0,-99.9,97,82,70,29.85,29.71,7,1,20,0.78
2013-7-21,75.0,69.7,61.0,65.0,61.8,59.0,98,77,63,30.00,29.91,6,2,9,0.01
2013-7-22,79.0,68.2,58.0,71.0,63.7,57.0,98,87,68,29.99,29.78,4,1,8,0.05
2013-7-23,84.0,73.3,67.0,71.0,67.6,59.0,98,84,55,29.78,29.60,6,1,13,0.33
2013-7-24,68.0,62.0,51.0,61.0,54.5,50.0,96,77,62,30.03,29.67,8,3,17,0.07
2013-7-25,72.0,59.5,47.0,59.0,53.2,46.0,98,82,58,30.11,30.03,6,1,14,0.00
2013-7-26,75.0,62.6,50.0,64.0,56.3,49.0,98,82,59,30.11,30.01,4,1,10,0.00
2013-7-27,81.0,67.7,54.0,71.0,63.5,53.0,98,87,66,30.01,29.84,8,3,21,0.37
2013-7-28,75.0,68.3,60.0,68.0,64.8,59.0,97,89,74,29.97,29.82,7,2,12,0.22
2013-7-29,72.0,62.6,56.0,62.0,57.9,55.0,98,86,59,30.11,29.97,5,1,14,0.04
2013-7-30,75.0,65.8,58.0,64.0,59.3,56.0,97,81,61,30.19,30.11,5,1,10,0.01
2013-7-31,80.0,68.2,55.0,66.0,60.4,54.0,98,79,51,30.15,29.93,5,2,10,0.00
2013-8-1,80.0,68.3,62.0,70.0,63.5,61.0,96,86,67,29.93,29.76,9,2,22,0.26
2013-8-2,75.0,67.1,60.0,66.0,62.1,59.0,97,85,64,29.89,29.82,7,1,12,0.05
2013-8-3,76.0,68.1,62.0,64.0,59.9,55.0,96,77,49,29.90,29.80,7,2,13,0.17
2013-8-4,71.0,64.1,57.0,61.0,56.4,52.0,92,77,58,30.03,29.90,11,3,18,0.00
2013-8-5,73.0,62.0,51.0,60.0,54.5,50.0,97,79,52,30.10,30.01,7,1,11,0.00
2013-8-6,78.0,65.2,52.0,64.0,57.3,51.0,98,78,51,30.05,29.99,6,2,11,0.00
2013-8-7,78.0,70.6,64.0,69.0,64.6,60.0,92,82,72,30.01,29.89,12,5,19,0.00
2013-8-8,85.0,72.4,66.0,74.0,68.5,64.0,97,88,65,29.95,29.90,5,2,11,0.35
2013-8-9,77.0,69.5,65.0,71.0,67.3,61.0,98,93,79,29.91,29.83,4,1,9,0.38
2013-8-10,72.0,66.0,55.0,62.0,58.2,53.0,96,77,56,30.08,29.90,7,2,16,0.01
2013-8-11,75.0,63.5,50.0,61.0,56.4,49.0,98,80,52,30.12,30.03,5,1,11,0.00
2013-8-12,79.0,67.5,60.0,68.0,61.5,58.0,94,82,57,30.04,29.85,3,0,8,0.00
2013-8-13,74.0,65.9,59.0,68.0,59.6,-99.9,97,82,64,29.85,29.72,6,2,18,0.37
2013-8-14,68.0,58.2,54.0,56.0,48.7,-99.9,94,76,56,30.05,29.82,8,3,17,0.04
2013-8-15,75.0,57.4,50.0,58.0,40.7,-99.9,94,70,47,30.12,30.05,5,1,12,0.01
2013-8-16,76.0,62.6,51.0,61.0,51.3,-99.9,96,73,48,30.19,30.10,3,1,8,0.00
2013-8-17,80.0,65.0,52.0,66.0,58.1,51.0,98,81,51,30.29,30.19,4,1,7,0.00
2013-8-18,79.0,65.6,57.0,67.0,58.9,-99.9,98,83,55,30.24,30.10,4,1,8,0.00
2013-8-19,81.0,66.4,58.0,67.0,51.8,-99.9,97,78,50,30.10,30.01,4,1,8,0.00
2013-8-20,84.0,69.6,58.0,67.0,60.2,-99.9,98,78,51,30.12,30.04,5,1,9,0.00
2013-8-21,86.0,71.3,57.0,72.0,63.6,56.0,98,79,51,30.15,30.01,4,1,9,0.01
2013-8-22,86.0,71.8,60.0,73.0,67.0,59.0,98,87,59,30.02,29.86,6,1,12,0.77
2013-8-23,72.0,64.3,54.0,64.0,58.6,52.0,99,84,63,30.19,29.95,6,2,11,0.01
2013-8-24,75.0,62.1,50.0,60.0,54.9,49.0,99,80,54,30.35,30.19,5,1,8,0.01
2013-8-25,83.0,65.2,49.0,65.0,55.5,-99.9,99,77,44,30.34,30.12,5,1,13,0.01
2013-8-26,78.0,70.1,65.0,72.0,66.2,61.0,97,88,72,30.18,29.91,5,1,13,1.68
2013-8-27,84.0,71.9,64.0,74.0,69.2,63.0,99,92,73,29.93,29.87,3,1,7,1.55
2013-8-28,83.0,77.2,67.0,75.0,71.5,66.0,98,83,74,29.93,29.84,4,2,9,0.00
2013-8-29,82.0,71.7,63.0,74.0,68.1,61.0,99,90,72,30.02,29.93,5,2,9,0.01
2013-8-30,86.0,71.9,60.0,75.0,66.1,59.0,99,84,52,30.01,29.77,5,1,10,0.01
2013-8-31,82.0,74.2,70.0,74.0,70.5,68.0,97,89,73,29.84,29.72,5,2,11,0.02
2013-9-1,82.0,71.8,65.0,74.0,67.3,-99.9,98,89,69,29.84,29.73,6,1,10,0.05
2013-9-2,84.0,72.5,66.0,74.0,68.4,60.0,98,88,68,29.78,29.65,5,2,12,0.09
2013-9-3,68.0,64.0,59.0,61.0,58.3,56.0,91,82,72,29.91,29.77,6,2,13,0.01
2013-9-4,78.0,66.9,53.0,61.0,56.7,52.0,97,72,45,29.98,29.91,7,2,16,0.12
2013-9-5,67.0,59.3,48.0,63.0,51.8,43.0,96,78,54,30.20,29.94,9,2,20,0.12
2013-9-6,70.0,56.0,44.0,54.0,46.9,42.0,94,74,46,30.27,30.09,5,1,8,0.00
2013-9-7,67.0,59.1,49.0,63.0,55.6,47.0,95,89,71,30.09,29.85,3,1,7,0.05
2013-9-8,65.0,59.9,46.0,63.0,51.3,-99.9,98,77,52,30.10,29.83,8,3,15,0.08
2013-9-9,74.0,59.4,43.0,61.0,51.8,42.0,98,78,53,30.15,29.96,9,3,15,0.01
2013-9-10,91.0,76.7,63.0,78.0,69.8,59.0,94,80,62,29.99,29.91,10,3,21,0.05
2013-9-11,94.0,83.8,73.0,77.0,73.4,67.0,92,72,52,30.03,29.88,6,2,13,0.01
2013-9-12,76.0,70.0,62.0,70.0,66.4,60.0,96,88,79,29.91,29.70,4,1,14,0.19
2013-9-13,62.0,55.2,51.0,60.0,53.4,49.0,97,94,88,29.98,29.71,7,3,13,0.18
2013-9-14,61.0,52.2,44.0,49.0,46.9,43.0,97,83,57,30.11,29.97,4,1,10,0.02
2013-9-15,67.0,51.7,41.0,56.0,45.7,-99.9,98,85,54,30.15,30.04,5,1,14,0.01
2013-9-16,55.0,51.0,44.0,53.0,49.0,43.0,98,93,79,30.35,30.05,5,2,12,0.21
2013-9-17,64.0,48.7,35.0,48.0,41.9,34.0,98,81,47,30.48,30.29,5,1,8,0.01
2013-9-18,51.0,44.4,42.0,47.0,42.8,41.0,98,94,86,30.29,30.11,3,1,4,0.01
2013-9-19,77.0,59.5,46.0,60.0,52.1,45.0,97,79,47,30.12,30.01,6,1,11,0.00
2013-9-20,81.0,66.3,52.0,65.0,58.6,51.0,98,79,52,30.01,29.79,13,4,19,0.00